This demonstration page uses our WeatherBlox Daily Observations layout. Learn more.

Left ArrowRight Arrow

39.08367, -84.50855

Hourly Observations for May 25, 2020

Temp ( °F °C ) Dew Point ( °F °C ) Humidity (%) Winds ( mph kmh ) Pressure ( in mb ) Visibility ( mi km ) Precip ( " mm )
12:53 am 00:53 Clear 66 18.9 65 18.3 96 96 Calm 30.03 1017 10 16.0934 0 0
1:39 am 01:39 Mostly Clear with Mist and Fog 64 17.8 64 17.8 100 100 Calm 30.02 1017 1.75 2.816345 0 0
1:53 am 01:53 Mostly Cloudy with Mist and Fog 63 17.2 63 17.2 100 100 Calm 30.03 1017 0.75 1.207005 0 0
2:53 am 02:53 Mostly Clear with Fog 64 17.8 63 17.2 96 96 Calm 30 1016 0.5 0.80467 0 0
3:17 am 03:17 Cloudy with Mist and Fog 63 17.2 63 17.2 100 100 Calm 30.01 1016 1.75 2.816345 0 0
3:53 am 03:53 Mostly Cloudy with Fog 63 17.2 63 17.2 100 100 Calm 30 1016 0.25 0.402335 0 0
4:22 am 04:22 Mostly Cloudy with Mist and Fog 63 17.2 63 17.2 100 100 Calm 30 1016 0.75 1.207005 0 0
4:32 am 04:32 Cloudy with Mist and Fog 63 17.2 63 17.2 100 100 Calm 30.01 1016 1.25 2.011675 0 0
4:38 am 04:38 Cloudy with Mist and Fog 63 17.2 63 17.2 100 100 Calm 30 1016 3 4.82802 0 0
4:53 am 04:53 Cloudy with Mist and Fog 63 17.2 63 17.2 100 100 Calm 30 1016 6 9.65604 0 0
5:11 am 05:11 Cloudy with Mist and Fog 62 16.7 62 16.7 100 100 Calm 30.01 1016 1.75 2.816345 0 0
5:24 am 05:24 Cloudy with Mist and Fog 62 16.7 62 16.7 100 100 SSW 3 6 30.01 1016 3 4.82802 0 0
5:31 am 05:31 Mostly Cloudy with Mist and Fog 62 16.7 62 16.7 100 100 SW 3 6 30.01 1016 1.75 2.816345 0 0
5:44 am 05:44 Mostly Cloudy with Mist and Fog 62 16.7 62 16.7 100 100 Calm 30.01 1016 3 4.82802 0 0
5:53 am 05:53 Mostly Cloudy with Mist and Fog 61 16.1 61 16.1 100 100 S 3 6 30.01 1016 1.25 2.011675 0 0
5:59 am 05:59 Mostly Cloudy with Fog 61 16.1 61 16.1 100 100 S 3 6 30.03 1017 0.25 0.402335 0 0
6:12 am 06:12 Mostly Cloudy with Fog 61 16.1 61 16.1 100 100 Calm 30.03 1017 0.5 0.80467 0 0
6:20 am 06:20 Mostly Cloudy with Fog 62 16.7 61 16.1 96 96 Calm 30.03 1017 0.25 0.402335 0 0
6:39 am 06:39 Mostly Cloudy with Fog 61 16.1 61 16.1 100 100 Calm 30.04 1017 0.5 0.80467 0 0
6:45 am 06:45 Partly Cloudy with Mist and Fog 61 16.1 61 16.1 100 100 Calm 30.05 1017 6 9.65604 0 0
6:53 am 06:53 Partly Cloudy with Mist and Fog 61 16.1 61 16.1 100 100 Calm 30.04 1017 6 9.65604 0 0
7:53 am 07:53 Sunny 64 17.8 64 17.8 100 100 SW 3 6 30.05 1018 10 16.0934 0 0
8:53 am 08:53 Sunny 69 20.6 66 18.9 90 90 Calm 30.06 1018 10 16.0934 0 0
9:53 am 09:53 Sunny 74 23.3 68 20 82 82 Calm 30.06 1018 10 16.0934 0 0
10:53 am 10:53 Sunny 78 25.6 70 21.1 76 76 SSW 3 6 30.06 1018 10 16.0934 0 0
12:53 pm 12:53 Partly Cloudy 85 29.4 70 21.1 61 61 S 6 9 30.04 1017 10 16.0934 0 0
1:15 pm 13:15 Mostly Cloudy with Light Thunderstorms 82 27.8 70 21.1 67 67 S 7 11 30.02 1017 10 16.0934 0.001 0.001
1:53 pm 13:53 Mostly Cloudy with Nearby Thunderstorms 78 25.6 69 20.6 74 74 ENE 6 9 30.04 1017 10 16.0934 0.05 1.27
2:53 pm 14:53 Mostly Cloudy 77 25 67 19.4 71 71 S 6 9 30.04 1017 10 16.0934 0 0
3:53 pm 15:53 Partly Cloudy 76 24.4 67 19.4 74 74 ENE 3 6 30.03 1017 10 16.0934 0 0
4:53 pm 16:53 Sunny 77 25 69 20.6 77 77 NNE 5 7 30.01 1016 10 16.0934 0 0
5:53 pm 17:53 Sunny 79 26.1 70 21.1 74 74 NNE 10 17 30.01 1016 10 16.0934 0 0
6:53 pm 18:53 Sunny 81 27.2 70 21.1 69 69 NE 8 13 29.99 1016 10 16.0934 0 0
7:53 pm 19:53 Sunny 80 26.7 71 21.7 74 74 Calm 30 1016 10 16.0934 0 0
8:53 pm 20:53 Clear 74 23.3 71 21.7 91 91 Calm 30.01 1016 10 16.0934 0 0
9:53 pm 21:53 Clear 70 21.1 69 20.6 97 97 Calm 30.02 1017 10 16.0934 0 0
10:53 pm 22:53 Clear 68 20 67 19.4 96 96 Calm 30.04 1017 10 16.0934 0 0
11:13 pm 23:13 Clear with Mist and Fog 68 20 68 20 100 100 Calm 30.04 1017 2.5 4.02335 0 0
11:20 pm 23:20 Clear 69 20.6 68 20 96 96 Calm 30.04 1017 10 16.0934 0 0
11:53 pm 23:53 Clear 68 20 68 20 100 100 Calm 30.03 1017 10 16.0934 0 0

Powered by AerisWeather